QPF
0.01 0.01 0.00 0.00 0.00 0.00 0.00 0.00 0.00 0.00 0.00 0.00 0.00 0.00 0.00 0.00 0.00 0.00 0.00 0.00 0.00 0.00 0.00 0.00 0.00 0.01 0.01 0.01 0.01 0.01 0.01 0.02 0.03 0.03 0.02 0.01 0.01 0.00 0.00 0.00 0.00 0.00 0.00
0.01 0.01 0.00 0.00 0.00 0.00 0.00 0.00 0.00 0.00 0.00 0.00 0.00 0.00 0.00 0.00 0.00 0.00 0.00 0.00 0.00 0.00 0.00 0.00 0.00 0.00 0.00 0.00 0.01 0.01 0.01 0.02 0.02 0.03 0.02 0.01 0.01 0.01 0.00 0.00 0.00 0.00 0.00
0.01 0.01 0.00 0.00 0.00 0.00 0.00 0.00 0.00 0.00 0.00 0.00 0.00 0.00 0.00 0.00 0.00 0.00 0.00 0.00 0.00 0.00 0.00 0.00 0.00 0.00 0.01 0.01 0.01 0.01 0.01 0.01 0.02 0.02 0.02 0.02 0.02 0.02 0.01 0.02 0.01 0.00 0.00
0.02 0.01 0.00 0.00 0.00 0.00 0.00 0.00 0.00 0.00 0.00 0.00 0.00 0.00 0.00 0.00 0.00 0.00 0.00 0.00 0.00 0.00 0.00 0.00 0.00 0.00 0.01 0.01 0.01 0.01 0.01 0.01 0.01 0.02 0.02 0.02 0.02 0.02 0.02 0.03 0.02 0.01 0.00
0.04 0.02 0.01 0.00 0.00 0.00 0.00 0.00 0.00 0.00 0.00 0.00 0.00 0.00 0.00 0.00 0.00 0.00 0.00 0.01 0.01 0.00 0.00 0.00 0.00 0.00 0.00 0.00 0.00 0.00 0.01 0.01 0.01 0.01 0.02 0.02 0.02 0.02 0.02 0.02 0.02 0.01 0.01
0.03 0.05 0.03 0.02 0.01 0.01 0.00 0.00 0.00 0.00 0.00 0.00 0.00 0.01 0.00 0.00 0.00 0.00 0.00 0.01 0.01 0.01 0.00 0.00 0.00 0.00 0.00 0.00 0.00 0.00 0.00 0.00 0.00 0.01 0.01 0.01 0.01 0.02 0.02 0.03 0.03 0.03 0.03
0.06 0.09 0.07 0.05 0.03 0.02 0.02 0.02 0.02 0.01 0.01 0.01 0.01 0.01 0.01 0.01 0.01 0.00 0.00 0.00 0.01 0.01 0.00 0.00 0.00 0.00 0.00 0.00 0.00 0.00 0.00 0.00 0.01 0.01 0.01 0.01 0.01 0.01 0.02 0.03 0.03 0.05 0.06
0.09 0.09 0.09 0.08 0.05 0.03 0.03 0.02 0.03 0.03 0.03 0.03 0.03 0.02 0.01 0.01 0.01 0.01 0.01 0.01 0.01 0.01 0.01 0.00 0.00 0.00 0.00 0.00 0.00 0.00 0.00 0.00 0.00 0.00 0.01 0.01 0.01 0.01 0.01 0.01 0.02 0.03 0.04
0.18 0.16 0.15 0.12 0.10 0.07 0.06 0.05 0.05 0.07 0.07 0.07 0.07 0.05 0.02 0.01 0.00 0.01 0.01 0.02 0.02 0.01 0.01 0.00 0.00 0.00 0.00 0.00 0.00 0.00 0.00 0.00 0.00 0.00 0.01 0.00 0.00 0.00 0.00 0.01 0.01 0.01 0.01
0.32 0.26 0.20 0.15 0.12 0.10 0.10 0.10 0.09 0.10 0.09 0.09 0.09 0.07 0.06 0.06 0.03 0.01 0.01 0.02 0.03 0.03 0.01 0.00 0.00 0.00 0.00 0.00 0.00 0.00 0.00 0.00 0.00 0.00 0.00 0.00 0.00 0.00 0.00 0.00 0.01 0.01 0.00
0.45 0.34 0.25 0.19 0.15 0.13 0.14 0.14 0.14 0.14 0.13 0.14 0.13 0.12 0.11 0.08 0.05 0.04 0.02 0.02 0.03 0.03 0.02 0.01 0.01 0.00 0.00 0.00 0.00 0.00 0.00 0.00 0.00 0.00 0.00 0.00 0.00 0.00 0.00 0.00 0.00 0.00 0.00
0.58 0.41 0.30 0.21 0.19 0.19 0.17 0.15 0.16 0.15 0.15 0.16 0.16 0.15 0.14 0.11 0.07 0.05 0.03 0.03 0.02 0.01 0.01 0.02 0.02 0.02 0.01 0.01 0.00 0.00 0.00 0.00 0.00 0.00 0.00 0.00 0.00 0.00 0.00 0.00 0.00 0.00 0.00
0.49 0.44 0.38 0.29 0.22 0.19 0.17 0.16 0.16 0.14 0.15 0.16 0.16 0.14 0.12 0.09 0.08 0.05 0.03 0.02 0.02 0.01 0.01 0.01 0.03 0.04 0.03 0.02 0.01 0.01 0.00 0.00 0.00 0.00 0.00 0.00 0.00 0.00 0.00 0.00 0.00 0.00 0.00
0.41 0.36 0.29 0.24 0.19 0.16 0.15 0.16 0.17 0.15 0.14 0.13 0.11 0.11 0.09 0.07 0.07 0.06 0.04 0.03 0.02 0.01 0.01 0.01 0.02 0.03 0.02 0.02 0.01 0.01 0.01 0.00 0.00 0.00 0.00 0.00 0.00 0.00 0.00 0.00 0.00 0.00 0.00
0.35 0.30 0.23 0.18 0.15 0.14 0.14 0.14 0.14 0.11 0.10 0.09 0.09 0.08 0.07 0.06 0.05 0.05 0.04 0.04 0.02 0.01 0.01 0.01 0.03 0.04 0.05 0.04 0.03 0.02 0.02 0.01 0.01 0.00 0.00 0.00 0.00 0.00 0.00 0.00 0.00 0.00 0.00
0.20 0.20 0.17 0.15 0.14 0.14 0.14 0.15 0.13 0.10 0.09 0.08 0.07 0.06 0.05 0.04 0.04 0.03 0.03 0.03 0.02 0.01 0.01 0.01 0.02 0.04 0.04 0.05 0.05 0.05 0.04 0.02 0.02 0.01 0.00 0.00 0.00 0.00 0.00 0.00 0.00 0.00 0.00
0.12 0.14 0.17 0.20 0.20 0.17 0.16 0.15 0.12 0.10 0.08 0.06 0.05 0.03 0.03 0.02 0.02 0.02 0.02 0.01 0.01 0.01 0.00 0.01 0.02 0.02 0.02 0.04 0.06 0.08 0.05 0.03 0.02 0.02 0.01 0.00 0.00 0.00 0.00 0.00 0.00 0.00 0.00
0.12 0.16 0.17 0.21 0.20 0.16 0.16 0.14 0.12 0.10 0.07 0.05 0.04 0.03 0.03 0.02 0.02 0.01 0.01 0.01 0.01 0.01 0.01 0.01 0.01 0.02 0.03 0.04 0.04 0.08 0.09 0.07 0.06 0.05 0.04 0.02 0.01 0.00 0.00 0.00 0.00 0.00 0.00
0.21 0.26 0.26 0.27 0.24 0.22 0.19 0.17 0.14 0.12 0.09 0.05 0.04 0.03 0.03 0.02 0.02 0.01 0.01 0.01 0.01 0.01 0.01 0.01 0.01 0.01 0.02 0.02 0.03 0.06 0.09 0.09 0.08 0.09 0.11 0.10 0.06 0.02 0.01 0.00 0.00 0.00 0.00
0.23 0.25 0.25 0.23 0.24 0.23 0.22 0.22 0.18 0.13 0.09 0.08 0.06 0.04 0.03 0.02 0.02 0.02 0.01 0.01 0.01 0.01 0.01 0.01 0.01 0.01 0.02 0.02 0.02 0.04 0.06 0.08 0.11 0.13 0.14 0.15 0.14 0.08 0.04 0.02 0.01 0.00 0.00
0.17 0.19 0.20 0.21 0.21 0.23 0.25 0.22 0.16 0.12 0.08 0.07 0.06 0.05 0.05 0.04 0.03 0.02 0.02 0.01 0.01 0.01 0.01 0.00 0.00 0.01 0.01 0.02 0.02 0.03 0.05 0.08 0.09 0.12 0.15 0.15 0.16 0.13 0.11 0.07 0.04 0.03 0.02
0.10 0.13 0.12 0.12 0.13 0.15 0.15 0.12 0.09 0.08 0.07 0.07 0.06 0.05 0.06 0.06 0.04 0.03 0.02 0.01 0.01 0.01 0.01 0.00 0.01 0.01 0.01 0.01 0.02 0.02 0.04 0.06 0.08 0.12 0.15 0.18 0.22 0.22 0.22 0.18 0.16 0.14 0.10
0.05 0.05 0.05 0.05 0.05 0.07 0.07 0.05 0.03 0.03 0.04 0.05 0.06 0.05 0.06 0.07 0.06 0.05 0.04 0.03 0.02 0.01 0.01 0.01 0.01 0.01 0.01 0.01 0.01 0.02 0.03 0.05 0.08 0.10 0.13 0.18 0.22 0.24 0.26 0.25 0.25 0.23 0.22
0.01 0.01 0.02 0.03 0.03 0.03 0.03 0.02 0.02 0.01 0.01 0.02 0.04 0.05 0.07 0.08 0.07 0.08 0.08 0.07 0.07 0.04 0.04 0.02 0.02 0.02 0.01 0.00 0.00 0.01 0.01 0.02 0.03 0.04 0.06 0.09 0.14 0.19 0.23 0.26 0.26 0.24 0.24
0.00 0.00 0.00 0.01 0.02 0.01 0.01 0.01 0.01 0.01 0.01 0.01 0.03 0.04 0.05 0.05 0.08 0.10 0.07 0.06 0.07 0.05 0.04 0.04 0.04 0.03 0.01 0.01 0.00 0.00 0.00 0.00 0.01 0.02 0.03 0.04 0.08 0.10 0.15 0.18 0.18 0.20 0.21
0.00 0.00 0.00 0.00 0.00 0.00 0.00 0.00 0.00 0.00 0.00 0.01 0.03 0.04 0.04 0.05 0.08 0.08 0.04 0.05 0.06 0.05 0.05 0.05 0.05 0.04 0.02 0.02 0.02 0.01 0.01 0.01 0.01 0.01 0.01 0.02 0.02 0.03 0.04 0.05 0.06 0.07 0.08
MSLP
1015.87 1016.03 1016.11 1016.14 1016.14 1016.15 1016.17 1016.21 1016.26 1016.31 1016.36 1016.39 1016.41 1016.43 1016.47 1016.53 1016.63 1016.76 1016.92 1017.07 1017.20 1017.30 1017.36 1017.39 1017.40 1017.41 1017.44 1017.50 1017.59 1017.71 1017.85 1018.00 1018.13 1018.25 1018.35 1018.44 1018.53 1018.61 1018.70 1018.78 1018.86 1018.92 1018.95
1015.42 1015.59 1015.70 1015.77 1015.84 1015.91 1016.00 1016.10 1016.20 1016.29 1016.36 1016.41 1016.45 1016.47 1016.51 1016.58 1016.67 1016.79 1016.93 1017.06 1017.18 1017.27 1017.33 1017.37 1017.40 1017.44 1017.49 1017.57 1017.68 1017.80 1017.93 1018.05 1018.16 1018.25 1018.33 1018.41 1018.50 1018.60 1018.71 1018.82 1018.92 1019.00 1019.04
1014.85 1015.04 1015.19 1015.33 1015.47 1015.63 1015.81 1015.99 1016.16 1016.30 1016.41 1016.49 1016.54 1016.58 1016.61 1016.66 1016.74 1016.83 1016.93 1017.03 1017.11 1017.18 1017.24 1017.28 1017.33 1017.40 1017.49 1017.60 1017.72 1017.86 1017.98 1018.08 1018.17 1018.23 1018.29 1018.35 1018.43 1018.54 1018.68 1018.82 1018.96 1019.06 1019.12
1014.20 1014.42 1014.63 1014.85 1015.08 1015.34 1015.61 1015.87 1016.12 1016.33 1016.48 1016.59 1016.66 1016.71 1016.74 1016.78 1016.82 1016.87 1016.93 1016.98 1017.02 1017.06 1017.09 1017.14 1017.20 1017.29 1017.42 1017.57 1017.72 1017.87 1018.00 1018.09 1018.15 1018.19 1018.22 1018.27 1018.35 1018.46 1018.62 1018.79 1018.95 1019.08 1019.16
1013.54 1013.80 1014.07 1014.37 1014.70 1015.05 1015.41 1015.75 1016.07 1016.33 1016.53 1016.68 1016.78 1016.84 1016.87 1016.90 1016.92 1016.94 1016.95 1016.94 1016.94 1016.93 1016.93 1016.95 1017.02 1017.14 1017.29 1017.47 1017.66 1017.84 1017.98 1018.08 1018.13 1018.15 1018.16 1018.19 1018.25 1018.37 1018.53 1018.72 1018.91 1019.06 1019.15
1012.92 1013.22 1013.56 1013.93 1014.34 1014.77 1015.20 1015.61 1015.98 1016.29 1016.53 1016.71 1016.84 1016.93 1016.99 1017.03 1017.05 1017.04 1017.01 1016.96 1016.89 1016.83 1016.79 1016.78 1016.83 1016.95 1017.12 1017.33 1017.55 1017.76 1017.92 1018.03 1018.08 1018.10 1018.10 1018.11 1018.17 1018.28 1018.44 1018.63 1018.83 1018.99 1019.09
1012.41 1012.74 1013.13 1013.56 1014.03 1014.51 1014.99 1015.44 1015.84 1016.18 1016.45 1016.67 1016.84 1016.97 1017.07 1017.14 1017.18 1017.18 1017.13 1017.04 1016.93 1016.81 1016.71 1016.66 1016.67 1016.77 1016.94 1017.16 1017.41 1017.64 1017.83 1017.96 1018.03 1018.05 1018.05 1018.06 1018.10 1018.21 1018.36 1018.54 1018.73 1018.88 1018.97
1012.03 1012.39 1012.80 1013.27 1013.77 1014.28 1014.77 1015.23 1015.64 1015.99 1016.29 1016.54 1016.76 1016.94 1017.11 1017.23 1017.31 1017.33 1017.29 1017.19 1017.04 1016.86 1016.70 1016.59 1016.56 1016.62 1016.76 1016.98 1017.23 1017.48 1017.70 1017.86 1017.95 1017.99 1018.01 1018.02 1018.07 1018.16 1018.29 1018.46 1018.62 1018.76 1018.83
1011.81 1012.18 1012.61 1013.08 1013.58 1014.08 1014.56 1015.00 1015.39 1015.74 1016.04 1016.32 1016.59 1016.84 1017.07 1017.27 1017.41 1017.48 1017.47 1017.37 1017.19 1016.98 1016.77 1016.59 1016.50 1016.50 1016.60 1016.79 1017.04 1017.30 1017.54 1017.73 1017.86 1017.93 1017.98 1018.01 1018.06 1018.14 1018.26 1018.40 1018.54 1018.64 1018.69
1011.76 1012.12 1012.54 1013.00 1013.48 1013.94 1014.38 1014.77 1015.13 1015.45 1015.75 1016.04 1016.34 1016.65 1016.95 1017.23 1017.45 1017.58 1017.61 1017.53 1017.35 1017.11 1016.85 1016.62 1016.46 1016.40 1016.45 1016.61 1016.83 1017.09 1017.34 1017.56 1017.73 1017.85 1017.92 1017.98 1018.05 1018.14 1018.25 1018.37 1018.49 1018.57 1018.60
1011.87 1012.21 1012.61 1013.03 1013.46 1013.86 1014.24 1014.58 1014.87 1015.15 1015.43 1015.72 1016.04 1016.39 1016.75 1017.09 1017.37 1017.57 1017.65 1017.60 1017.44 1017.19 1016.91 1016.63 1016.42 1016.31 1016.30 1016.41 1016.61 1016.85 1017.11 1017.36 1017.56 1017.72 1017.84 1017.94 1018.03 1018.14 1018.25 1018.37 1018.48 1018.54 1018.56
1012.12 1012.43 1012.78 1013.15 1013.52 1013.86 1014.16 1014.43 1014.66 1014.88 1015.12 1015.39 1015.70 1016.06 1016.45 1016.83 1017.17 1017.42 1017.54 1017.54 1017.40 1017.17 1016.89 1016.60 1016.35 1016.20 1016.15 1016.22 1016.38 1016.60 1016.86 1017.11 1017.34 1017.53 1017.70 1017.84 1017.97 1018.11 1018.25 1018.38 1018.49 1018.56 1018.57
1012.47 1012.74 1013.04 1013.35 1013.65 1013.92 1014.15 1014.33 1014.50 1014.65 1014.83 1015.06 1015.35 1015.69 1016.07 1016.46 1016.82 1017.10 1017.27 1017.31 1017.22 1017.03 1016.77 1016.49 1016.25 1016.07 1016.00 1016.03 1016.15 1016.35 1016.58 1016.83 1017.08 1017.30 1017.50 1017.68 1017.86 1018.03 1018.20 1018.36 1018.50 1018.59 1018.62
1012.87 1013.10 1013.34 1013.60 1013.83 1014.02 1014.18 1014.29 1014.38 1014.47 1014.59 1014.76 1014.99 1015.29 1015.63 1016.00 1016.36 1016.65 1016.85 1016.94 1016.91 1016.77 1016.57 1016.33 1016.11 1015.94 1015.86 1015.86 1015.96 1016.12 1016.33 1016.56 1016.79 1017.02 1017.24 1017.46 1017.67 1017.88 1018.09 1018.29 1018.46 1018.59 1018.66
1013.27 1013.46 1013.65 1013.85 1014.01 1014.15 1014.24 1014.29 1014.32 1014.34 1014.39 1014.49 1014.65 1014.88 1015.17 1015.50 1015.83 1016.12 1016.34 1016.47 1016.50 1016.44 1016.31 1016.14 1015.98 1015.84 1015.76 1015.76 1015.82 1015.94 1016.11 1016.31 1016.52 1016.73 1016.95 1017.18 1017.42 1017.66 1017.91 1018.15 1018.37 1018.54 1018.65
1013.65 1013.78 1013.93 1014.06 1014.18 1014.26 1014.30 1014.30 1014.28 1014.25 1014.24 1014.27 1014.36 1014.51 1014.74 1015.00 1015.29 1015.57 1015.80 1015.98 1016.07 1016.09 1016.05 1015.97 1015.87 1015.78 1015.73 1015.72 1015.76 1015.84 1015.96 1016.11 1016.28 1016.46 1016.66 1016.88 1017.12 1017.38 1017.66 1017.93 1018.18 1018.40 1018.55
1013.96 1014.05 1014.15 1014.24 1014.31 1014.35 1014.35 1014.32 1014.26 1014.19 1014.13 1014.10 1014.13 1014.22 1014.37 1014.58 1014.82 1015.08 1015.33 1015.54 1015.69 1015.79 1015.84 1015.84 1015.82 1015.79 1015.77 1015.77 1015.79 1015.83 1015.90 1015.99 1016.10 1016.24 1016.40 1016.59 1016.82 1017.07 1017.35 1017.64 1017.91 1018.16 1018.35
1014.21 1014.26 1014.32 1014.37 1014.40 1014.41 1014.39 1014.33 1014.25 1014.15 1014.06 1013.99 1013.97 1014.01 1014.10 1014.26 1014.47 1014.71 1014.96 1015.20 1015.41 1015.58 1015.70 1015.78 1015.83 1015.86 1015.87 1015.87 1015.88 1015.89 1015.91 1015.95 1016.00 1016.08 1016.19 1016.34 1016.53 1016.76 1017.02 1017.30 1017.58 1017.84 1018.05
1014.43 1014.45 1014.46 1014.48 1014.48 1014.47 1014.43 1014.36 1014.26 1014.15 1014.04 1013.95 1013.90 1013.90 1013.96 1014.08 1014.26 1014.48 1014.73 1014.98 1015.23 1015.45 1015.63 1015.77 1015.88 1015.95 1015.98 1016.00 1016.00 1015.99 1015.98 1015.97 1015.97 1016.00 1016.06 1016.16 1016.30 1016.48 1016.70 1016.95 1017.21 1017.46 1017.68
1014.66 1014.64 1014.63 1014.62 1014.60 1014.56 1014.50 1014.42 1014.31 1014.19 1014.07 1013.97 1013.90 1013.88 1013.92 1014.02 1014.17 1014.38 1014.62 1014.88 1015.14 1015.39 1015.61 1015.79 1015.93 1016.02 1016.08 1016.11 1016.11 1016.09 1016.06 1016.03 1016.00 1015.99 1016.00 1016.05 1016.14 1016.27 1016.44 1016.63 1016.85 1017.07 1017.27
1014.95 1014.91 1014.87 1014.83 1014.78 1014.72 1014.64 1014.54 1014.42 1014.29 1014.16 1014.05 1013.97 1013.94 1013.96 1014.04 1014.18 1014.38 1014.61 1014.86 1015.12 1015.36 1015.59 1015.78 1015.94 1016.05 1016.13 1016.17 1016.18 1016.17 1016.14 1016.11 1016.07 1016.04 1016.02 1016.03 1016.06 1016.13 1016.24 1016.37 1016.53 1016.70 1016.86
1015.35 1015.28 1015.22 1015.16 1015.08 1014.99 1014.88 1014.74 1014.59 1014.44 1014.29 1014.17 1014.08 1014.03 1014.05 1014.12 1014.25 1014.42 1014.63 1014.87 1015.10 1015.34 1015.55 1015.74 1015.89 1016.02 1016.10 1016.16 1016.20 1016.21 1016.21 1016.19 1016.16 1016.13 1016.10 1016.08 1016.07 1016.08 1016.12 1016.19 1016.27 1016.38 1016.50
1015.87 1015.79 1015.71 1015.62 1015.51 1015.37 1015.21 1015.03 1014.84 1014.65 1014.47 1014.32 1014.21 1014.15 1014.15 1014.21 1014.32 1014.48 1014.67 1014.87 1015.09 1015.29 1015.48 1015.65 1015.80 1015.93 1016.03 1016.11 1016.17 1016.22 1016.25 1016.27 1016.27 1016.25 1016.22 1016.19 1016.15 1016.12 1016.10 1016.09 1016.11 1016.16 1016.22
1016.51 1016.42 1016.32 1016.20 1016.05 1015.86 1015.65 1015.41 1015.16 1014.91 1014.69 1014.50 1014.36 1014.28 1014.26 1014.30 1014.40 1014.53 1014.69 1014.87 1015.06 1015.24 1015.40 1015.56 1015.70 1015.82 1015.94 1016.05 1016.14 1016.23 1016.30 1016.36 1016.40 1016.41 1016.39 1016.35 1016.30 1016.23 1016.16 1016.10 1016.06 1016.04 1016.05
1017.24 1017.14 1017.02 1016.87 1016.67 1016.43 1016.15 1015.85 1015.53 1015.22 1014.94 1014.71 1014.53 1014.42 1014.38 1014.40 1014.48 1014.59 1014.73 1014.89 1015.05 1015.21 1015.36 1015.50 1015.64 1015.77 1015.90 1016.03 1016.16 1016.28 1016.40 1016.49 1016.56 1016.60 1016.60 1016.57 1016.50 1016.41 1016.31 1016.21 1016.12 1016.06 1016.02
1018.00 1017.90 1017.76 1017.57 1017.33 1017.03 1016.69 1016.32 1015.94 1015.57 1015.24 1014.96 1014.74 1014.61 1014.54 1014.54 1014.60 1014.70 1014.82 1014.96 1015.11 1015.26 1015.40 1015.54 1015.68 1015.82 1015.96 1016.12 1016.27 1016.42 1016.56 1016.68 1016.77 1016.83 1016.84 1016.81 1016.75 1016.65 1016.54 1016.42 1016.31 1016.22 1016.15
Thickness
5770 5768 5766 5765 5764 5764 5762 5761 5760 5760 5760 5760 5760 5759 5756 5754 5753 5752 5751 5750 5750 5750 5750 5749 5749 5749 5748 5748 5748 5748 5747 5747 5747 5746 5746 5746 5746 5745 5745 5745 5746 5746 5747
5771 5767 5765 5764 5763 5763 5762 5760 5759 5758 5758 5759 5759 5758 5756 5753 5751 5750 5749 5749 5748 5748 5748 5748 5747 5747 5746 5746 5746 5746 5745 5745 5745 5744 5744 5743 5743 5743 5743 5743 5743 5743 5744
5772 5768 5765 5763 5762 5761 5760 5758 5757 5756 5756 5756 5756 5756 5754 5752 5750 5749 5748 5747 5746 5746 5745 5745 5745 5744 5744 5743 5743 5743 5743 5742 5742 5742 5741 5741 5740 5740 5740 5740 5740 5740 5740
5773 5769 5766 5763 5761 5759 5757 5756 5754 5752 5752 5752 5752 5753 5752 5750 5748 5747 5746 5745 5744 5743 5743 5742 5742 5742 5741 5741 5741 5740 5740 5739 5739 5738 5738 5737 5737 5737 5737 5737 5736 5736 5737
5772 5769 5766 5764 5761 5758 5755 5754 5751 5749 5747 5746 5747 5747 5747 5747 5746 5745 5743 5742 5742 5741 5740 5740 5739 5739 5738 5737 5737 5737 5736 5735 5735 5734 5734 5733 5733 5733 5733 5733 5733 5733 5733
5771 5768 5764 5761 5758 5755 5752 5750 5747 5746 5744 5743 5743 5741 5741 5742 5743 5742 5741 5739 5738 5738 5737 5737 5736 5735 5734 5733 5733 5732 5732 5731 5730 5730 5729 5729 5728 5728 5729 5729 5729 5729 5730
5769 5765 5761 5758 5755 5750 5748 5746 5743 5740 5737 5738 5734 5731 5733 5736 5737 5738 5739 5737 5735 5734 5734 5733 5732 5731 5730 5729 5728 5728 5727 5726 5725 5725 5724 5724 5723 5723 5724 5725 5725 5726 5726
5763 5761 5757 5753 5750 5746 5743 5741 5739 5734 5732 5732 5728 5721 5718 5721 5728 5734 5734 5733 5733 5731 5730 5729 5728 5727 5726 5725 5724 5723 5722 5721 5720 5720 5719 5719 5718 5718 5718 5719 5720 5721 5722
5754 5752 5750 5747 5745 5742 5738 5736 5734 5730 5725 5725 5726 5719 5711 5708 5715 5723 5727 5728 5729 5728 5728 5727 5725 5723 5721 5721 5720 5719 5718 5717 5716 5715 5714 5713 5713 5712 5713 5714 5714 5716 5717
5745 5744 5741 5739 5737 5735 5733 5731 5730 5727 5723 5718 5718 5719 5717 5715 5709 5709 5716 5720 5723 5724 5724 5724 5724 5721 5719 5717 5715 5714 5713 5712 5710 5709 5708 5708 5707 5707 5707 5708 5709 5710 5711
5736 5735 5733 5732 5730 5728 5726 5725 5723 5722 5719 5716 5713 5712 5710 5709 5709 5704 5703 5709 5713 5717 5719 5720 5721 5720 5717 5714 5712 5710 5709 5707 5705 5704 5703 5703 5702 5702 5702 5702 5703 5704 5706
5728 5726 5724 5723 5722 5721 5719 5718 5717 5716 5713 5712 5709 5708 5705 5703 5702 5701 5699 5700 5703 5708 5713 5715 5716 5716 5714 5712 5709 5707 5705 5703 5701 5699 5698 5697 5697 5697 5697 5697 5698 5699 5700
5719 5718 5716 5715 5714 5713 5712 5710 5709 5708 5707 5705 5704 5704 5703 5702 5702 5700 5698 5696 5696 5700 5705 5708 5710 5711 5710 5709 5706 5704 5701 5698 5697 5695 5694 5693 5692 5692 5692 5692 5692 5693 5694
5711 5710 5709 5707 5706 5705 5704 5703 5702 5700 5700 5700 5700 5699 5698 5699 5699 5698 5696 5692 5689 5691 5695 5699 5704 5706 5706 5705 5703 5700 5697 5695 5692 5690 5689 5688 5687 5687 5686 5686 5687 5688 5689
5701 5700 5700 5698 5697 5696 5695 5695 5694 5694 5693 5693 5694 5694 5693 5694 5694 5694 5694 5692 5687 5683 5684 5691 5695 5700 5700 5699 5698 5696 5693 5691 5688 5686 5685 5684 5683 5682 5681 5681 5681 5682 5683
5690 5689 5688 5687 5687 5687 5686 5686 5686 5686 5686 5686 5687 5687 5687 5688 5689 5689 5689 5689 5687 5683 5679 5685 5689 5693 5694 5694 5693 5691 5689 5687 5684 5682 5681 5680 5679 5678 5677 5677 5676 5676 5677
5680 5679 5679 5679 5679 5679 5679 5679 5679 5679 5678 5679 5680 5680 5680 5682 5682 5683 5683 5683 5682 5680 5677 5679 5683 5686 5687 5687 5687 5686 5684 5682 5680 5679 5677 5676 5675 5675 5674 5673 5672 5672 5672
5673 5673 5672 5672 5672 5672 5672 5671 5670 5672 5672 5672 5674 5674 5675 5676 5676 5676 5677 5677 5677 5676 5674 5673 5676 5678 5680 5681 5681 5680 5679 5678 5677 5676 5675 5673 5672 5671 5671 5670 5669 5669 5668
5668 5668 5667 5666 5665 5665 5665 5665 5665 5666 5666 5668 5669 5670 5671 5671 5670 5671 5672 5671 5672 5672 5670 5668 5669 5672 5673 5674 5674 5674 5674 5673 5673 5672 5672 5671 5670 5669 5668 5667 5666 5665 5665
5662 5662 5661 5660 5660 5659 5660 5660 5661 5661 5662 5663 5665 5666 5666 5666 5666 5666 5666 5666 5666 5665 5664 5663 5663 5664 5665 5667 5667 5666 5666 5667 5667 5668 5668 5668 5667 5666 5666 5664 5663 5662 5662
5656 5655 5655 5655 5655 5655 5655 5655 5656 5657 5656 5657 5659 5660 5661 5662 5662 5662 5662 5660 5659 5658 5657 5657 5656 5656 5657 5659 5659 5660 5659 5661 5661 5662 5662 5663 5662 5662 5662 5661 5660 5659 5659
5648 5648 5647 5647 5648 5649 5649 5650 5651 5651 5651 5651 5651 5653 5655 5655 5656 5656 5656 5656 5655 5653 5651 5650 5650 5650 5651 5653 5654 5654 5654 5654 5653 5656 5656 5656 5657 5657 5657 5656 5656 5656 5656
5641 5640 5639 5639 5639 5640 5642 5644 5644 5644 5644 5643 5644 5645 5647 5648 5648 5647 5648 5649 5649 5649 5649 5647 5645 5645 5647 5648 5649 5649 5648 5648 5648 5649 5649 5649 5650 5651 5652 5652 5652 5652 5652
5634 5633 5632 5631 5631 5632 5634 5635 5636 5636 5635 5635 5635 5636 5637 5638 5640 5640 5640 5640 5640 5641 5643 5643 5642 5642 5643 5644 5644 5644 5644 5643 5642 5642 5643 5642 5643 5644 5645 5645 5646 5647 5647
5628 5627 5625 5624 5623 5623 5625 5626 5627 5625 5625 5625 5626 5627 5628 5630 5633 5634 5634 5633 5634 5635 5637 5638 5637 5637 5638 5639 5639 5638 5637 5636 5634 5635 5636 5636 5635 5636 5638 5638 5639 5640 5640
5624 5622 5619 5617 5615 5614 5616 5618 5618 5616 5615 5615 5616 5618 5620 5622 5625 5627 5627 5628 5627 5628 5630 5630 5631 5631 5632 5633 5633 5633 5632 5630 5628 5628 5629 5629 5629 5629 5629 5630 5631 5632 5633